Time,TemperatureF,DewpointF,PressureIn,WindDirection,WindDirectionDegrees,WindSpeedMPH,WindSpeedGustMPH,Humidity,HourlyPrecipIn,Conditions,Clouds,dailyrainin,SoftwareType,DateUTC
2013-02-07 00:22:00,19.0,-99.9,30.38,North,-999,-999.0,-999.0,-999,-99.99,,,-99.99,,2013-02-07 05:22:00,
2013-02-07 00:32:00,19.0,-99.9,30.38,North,-999,-999.0,-999.0,-999,-99.99,,,-99.99,,2013-02-07 05:32:00,
2013-02-07 00:43:00,19.0,-99.9,30.38,North,-999,-999.0,-999.0,-999,-99.99,,,-99.99,,2013-02-07 05:43:00,
2013-02-07 00:52:00,19.0,-99.9,30.38,North,-999,-999.0,-999.0,-999,-99.99,,,-99.99,,2013-02-07 05:52:00,
2013-02-07 00:53:00,18.0,-99.9,30.40,North,-999,-999.0,-999.0,-999,-99.99,,,-99.99,,2013-02-07 05:53:00,
2013-02-07 01:22:00,18.0,-99.9,30.40,North,-999,-999.0,-999.0,-999,-99.99,,,-99.99,,2013-02-07 06:22:00,
2013-02-07 01:32:00,18.0,-99.9,30.40,North,-999,-999.0,-999.0,-999,-99.99,,,-99.99,,2013-02-07 06:32:00,
2013-02-07 01:43:00,18.0,-99.9,30.40,North,-999,-999.0,-999.0,-999,-99.99,,,-99.99,,2013-02-07 06:43:00,
2013-02-07 01:52:00,17.0,-99.9,30.40,North,-999,-999.0,-999.0,-999,-99.99,,,-99.99,,2013-02-07 06:52:00,
2013-02-07 02:22:00,17.0,-99.9,30.40,North,-999,-999.0,-999.0,-999,-99.99,,,-99.99,,2013-02-07 07:22:00,
2013-02-07 02:32:00,17.0,-99.9,30.40,North,-999,-999.0,-999.0,-999,-99.99,,,-99.99,,2013-02-07 07:32:00,
2013-02-07 02:42:00,17.0,-99.9,30.40,North,-999,-999.0,-999.0,-999,-99.99,,,-99.99,,2013-02-07 07:42:00,
2013-02-07 02:52:00,16.0,-99.9,30.42,North,-999,-999.0,-999.0,-999,-99.99,,,-99.99,,2013-02-07 07:52:00,
2013-02-07 03:22:00,16.0,-99.9,30.42,North,-999,-999.0,-999.0,-999,-99.99,,,-99.99,,2013-02-07 08:22:00,
2013-02-07 03:32:00,16.0,-99.9,30.42,North,-999,-999.0,-999.0,-999,-99.99,,,-99.99,,2013-02-07 08:32:00,
2013-02-07 03:42:00,16.0,-99.9,30.42,North,-999,-999.0,-999.0,-999,-99.99,,,-99.99,,2013-02-07 08:42:00,
2013-02-07 04:22:00,20.0,-99.9,30.44,North,-999,-999.0,-999.0,-999,-99.99,,,-99.99,,2013-02-07 09:22:00,
2013-02-07 04:32:00,20.0,-99.9,30.44,North,-999,-999.0,-999.0,-999,-99.99,,,-99.99,,2013-02-07 09:32:00,
2013-02-07 04:42:00,20.0,-99.9,30.44,North,-999,-999.0,-999.0,-999,-99.99,,,-99.99,,2013-02-07 09:42:00,
2013-02-07 04:52:00,20.0,-99.9,30.44,North,-999,-999.0,-999.0,-999,-99.99,,,-99.99,,2013-02-07 09:52:00,
2013-02-07 05:22:00,18.0,-99.9,30.46,North,-999,-999.0,-999.0,-999,-99.99,,,-99.99,,2013-02-07 10:22:00,
2013-02-07 05:32:00,18.0,-99.9,30.46,North,-999,-999.0,-999.0,-999,-99.99,,,-99.99,,2013-02-07 10:32:00,
2013-02-07 05:42:00,18.0,-99.9,30.46,North,-999,-999.0,-999.0,-999,-99.99,,,-99.99,,2013-02-07 10:42:00,
2013-02-07 05:52:00,18.0,-99.9,30.46,North,-999,-999.0,-999.0,-999,-99.99,,,-99.99,,2013-02-07 10:52:00,
2013-02-07 05:53:00,20.0,-99.9,30.45,North,-999,-999.0,-999.0,-999,-99.99,,,-99.99,,2013-02-07 10:53:00,
2013-02-07 06:23:00,20.0,-99.9,30.45,North,-999,-999.0,-999.0,-999,-99.99,,,-99.99,,2013-02-07 11:23:00,
2013-02-07 06:32:00,20.0,-99.9,30.45,North,-999,-999.0,-999.0,-999,-99.99,,,-99.99,,2013-02-07 11:32:00,
2013-02-07 06:44:00,20.0,-99.9,30.45,North,-999,-999.0,-999.0,-999,-99.99,,,-99.99,,2013-02-07 11:44:00,
2013-02-07 06:52:00,20.0,-99.9,30.49,North,-999,-999.0,-999.0,-999,-99.99,,,-99.99,,2013-02-07 11:52:00,
2013-02-07 07:22:00,20.0,-99.9,30.49,North,-999,-999.0,-999.0,-999,-99.99,,,-99.99,,2013-02-07 12:22:00,
2013-02-07 07:33:00,20.0,-99.9,30.49,North,-999,-999.0,-999.0,-999,-99.99,,,-99.99,,2013-02-07 12:33:00,
2013-02-07 07:42:00,20.0,-99.9,30.49,North,-999,-999.0,-999.0,-999,-99.99,,,-99.99,,2013-02-07 12:42:00,
2013-02-07 08:22:00,21.0,-99.9,30.52,North,-999,-999.0,-999.0,-999,-99.99,,,-99.99,,2013-02-07 13:22:00,
2013-02-07 08:33:00,21.0,-99.9,30.52,North,-999,-999.0,-999.0,-999,-99.99,,,-99.99,,2013-02-07 13:33:00,
2013-02-07 08:42:00,21.0,-99.9,30.52,North,-999,-999.0,-999.0,-999,-99.99,,,-99.99,,2013-02-07 13:42:00,
2013-02-07 08:52:00,21.0,-99.9,30.52,North,-999,-999.0,-999.0,-999,-99.99,,,-99.99,,2013-02-07 13:52:00,
2013-02-07 09:22:00,24.0,-99.9,30.51,North,-999,-999.0,-999.0,-999,-99.99,,,-99.99,,2013-02-07 14:22:00,
2013-02-07 09:32:00,24.0,-99.9,30.51,North,-999,-999.0,-999.0,-999,-99.99,,,-99.99,,2013-02-07 14:32:00,
2013-02-07 09:42:00,24.0,-99.9,30.51,North,-999,-999.0,-999.0,-999,-99.99,,,-99.99,,2013-02-07 14:42:00,
2013-02-07 09:52:00,24.0,-99.9,30.51,North,-999,-999.0,-999.0,-999,-99.99,,,-99.99,,2013-02-07 14:52:00,
2013-02-07 10:22:00,26.0,-99.9,30.51,North,-999,-999.0,-999.0,-999,-99.99,,,-99.99,,2013-02-07 15:22:00,
2013-02-07 10:32:00,26.0,-99.9,30.51,North,-999,-999.0,-999.0,-999,-99.99,,,-99.99,,2013-02-07 15:32:00,
2013-02-07 10:42:00,26.0,-99.9,30.51,North,-999,-999.0,-999.0,-999,-99.99,,,-99.99,,2013-02-07 15:42:00,
2013-02-07 10:52:00,26.0,-99.9,30.51,North,-999,-999.0,-999.0,-999,-99.99,,,-99.99,,2013-02-07 15:52:00,
2013-02-07 11:22:00,29.0,-99.9,30.52,North,-999,-999.0,-999.0,-999,-99.99,,,-99.99,,2013-02-07 16:22:00,
2013-02-07 11:32:00,29.0,-99.9,30.52,North,-999,-999.0,-999.0,-999,-99.99,,,-99.99,,2013-02-07 16:32:00,
2013-02-07 11:42:00,29.0,-99.9,30.52,North,-999,-999.0,-999.0,-999,-99.99,,,-99.99,,2013-02-07 16:42:00,
2013-02-07 11:52:00,30.0,-99.9,30.51,North,-999,-999.0,-999.0,-999,-99.99,,,-99.99,,2013-02-07 16:52:00,
2013-02-07 12:32:00,30.0,-99.9,30.51,North,-999,-999.0,-999.0,-999,-99.99,,,-99.99,,2013-02-07 17:32:00,
2013-02-07 12:43:00,30.0,-99.9,30.51,North,-999,-999.0,-999.0,-999,-99.99,,,-99.99,,2013-02-07 17:43:00,
2013-02-07 13:32:00,31.0,-99.9,30.46,North,-999,-999.0,-999.0,-999,-99.99,,,-99.99,,2013-02-07 18:32:00,
2013-02-07 13:42:00,31.0,-99.9,30.46,North,-999,-999.0,-999.0,-999,-99.99,,,-99.99,,2013-02-07 18:42:00,
2013-02-07 13:52:00,31.0,-99.9,30.46,North,-999,-999.0,-999.0,-999,-99.99,,,-99.99,,2013-02-07 18:52:00,
2013-02-07 14:22:00,30.0,-99.9,30.44,North,-999,-999.0,-999.0,-999,-99.99,,,-99.99,,2013-02-07 19:22:00,
2013-02-07 14:32:00,30.0,-99.9,30.44,North,-999,-999.0,-999.0,-999,-99.99,,,-99.99,,2013-02-07 19:32:00,
2013-02-07 14:42:00,30.0,-99.9,30.44,North,-999,-999.0,-999.0,-999,-99.99,,,-99.99,,2013-02-07 19:42:00,
2013-02-07 14:52:00,31.0,-99.9,30.43,North,-999,-999.0,-999.0,-999,-99.99,,,-99.99,,2013-02-07 19:52:00,
2013-02-07 15:22:00,31.0,-99.9,30.43,North,-999,-999.0,-999.0,-999,-99.99,,,-99.99,,2013-02-07 20:22:00,
2013-02-07 15:32:00,31.0,-99.9,30.43,North,-999,-999.0,-999.0,-999,-99.99,,,-99.99,,2013-02-07 20:32:00,
2013-02-07 15:42:00,31.0,-99.9,30.43,North,-999,-999.0,-999.0,-999,-99.99,,,-99.99,,2013-02-07 20:42:00,
2013-02-07 15:52:00,31.0,-99.9,30.41,North,-999,-999.0,-999.0,-999,-99.99,,,-99.99,,2013-02-07 20:52:00,
2013-02-07 16:22:00,31.0,-99.9,30.41,North,-999,-999.0,-999.0,-999,-99.99,,,-99.99,,2013-02-07 21:22:00,
2013-02-07 16:32:00,31.0,-99.9,30.41,North,-999,-999.0,-999.0,-999,-99.99,,,-99.99,,2013-02-07 21:32:00,
2013-02-07 16:42:00,31.0,-99.9,30.41,North,-999,-999.0,-999.0,-999,-99.99,,,-99.99,,2013-02-07 21:42:00,
2013-02-07 17:22:00,30.0,-99.9,30.40,North,-999,-999.0,-999.0,-999,-99.99,,,-99.99,,2013-02-07 22:22:00,
2013-02-07 17:32:00,30.0,-99.9,30.40,North,-999,-999.0,-999.0,-999,-99.99,,,-99.99,,2013-02-07 22:32:00,
2013-02-07 17:42:00,30.0,-99.9,30.40,North,-999,-999.0,-999.0,-999,-99.99,,,-99.99,,2013-02-07 22:42:00,
2013-02-07 17:52:00,30.0,-99.9,30.40,North,-999,-999.0,-999.0,-999,-99.99,,,-99.99,,2013-02-07 22:52:00,
2013-02-07 18:22:00,28.0,-99.9,30.40,North,-999,-999.0,-999.0,-999,-99.99,,,-99.99,,2013-02-07 23:22:00,
2013-02-07 18:32:00,28.0,-99.9,30.40,North,-999,-999.0,-999.0,-999,-99.99,,,-99.99,,2013-02-07 23:32:00,
2013-02-07 18:42:00,28.0,-99.9,30.40,North,-999,-999.0,-999.0,-999,-99.99,,,-99.99,,2013-02-07 23:42:00,
2013-02-07 18:52:00,28.0,-99.9,30.40,North,-999,-999.0,-999.0,-999,-99.99,,,-99.99,,2013-02-07 23:52:00,
2013-02-07 19:22:00,28.0,-99.9,30.42,North,-999,-999.0,-999.0,-999,-99.99,,,-99.99,,2013-02-08 00:22:00,
2013-02-07 19:32:00,28.0,-99.9,30.42,North,-999,-999.0,-999.0,-999,-99.99,,,-99.99,,2013-02-08 00:32:00,
2013-02-07 19:42:00,28.0,-99.9,30.42,North,-999,-999.0,-999.0,-999,-99.99,,,-99.99,,2013-02-08 00:42:00,
2013-02-07 19:52:00,27.0,-99.9,30.41,North,-999,-999.0,-999.0,-999,-99.99,,,-99.99,,2013-02-08 00:52:00,
2013-02-07 20:21:00,27.0,-99.9,30.41,North,-999,-999.0,-999.0,-999,-99.99,,,-99.99,,2013-02-08 01:21:00,
2013-02-07 20:32:00,27.0,-99.9,30.41,North,-999,-999.0,-999.0,-999,-99.99,,,-99.99,,2013-02-08 01:32:00,
2013-02-07 20:42:00,27.0,-99.9,30.41,North,-999,-999.0,-999.0,-999,-99.99,,,-99.99,,2013-02-08 01:42:00,
2013-02-07 20:52:00,28.0,-99.9,30.40,North,-999,-999.0,-999.0,-999,-99.99,,,-99.99,,2013-02-08 01:52:00,
2013-02-07 21:22:00,28.0,-99.9,30.40,North,-999,-999.0,-999.0,-999,-99.99,,,-99.99,,2013-02-08 02:22:00,
2013-02-07 21:32:00,28.0,-99.9,30.40,North,-999,-999.0,-999.0,-999,-99.99,,,-99.99,,2013-02-08 02:32:00,
2013-02-07 21:42:00,28.0,-99.9,30.40,North,-999,-999.0,-999.0,-999,-99.99,,,-99.99,,2013-02-08 02:42:00,
2013-02-07 22:23:00,28.0,-99.9,30.38,North,-999,-999.0,-999.0,-999,-99.99,,,-99.99,,2013-02-08 03:23:00,
2013-02-07 22:32:00,28.0,-99.9,30.38,North,-999,-999.0,-999.0,-999,-99.99,,,-99.99,,2013-02-08 03:32:00,
2013-02-07 22:42:00,28.0,-99.9,30.38,North,-999,-999.0,-999.0,-999,-99.99,,,-99.99,,2013-02-08 03:42:00,
2013-02-07 22:52:00,28.0,-99.9,30.38,North,-999,-999.0,-999.0,-999,-99.99,,,-99.99,,2013-02-08 03:52:00,
2013-02-07 23:22:00,28.0,-99.9,30.35,North,-999,-999.0,-999.0,-999,-99.99,,,-99.99,,2013-02-08 04:22:00,
2013-02-07 23:32:00,28.0,-99.9,30.35,North,-999,-999.0,-999.0,-999,-99.99,,,-99.99,,2013-02-08 04:32:00,
2013-02-07 23:42:00,28.0,-99.9,30.35,North,-999,-999.0,-999.0,-999,-99.99,,,-99.99,,2013-02-08 04:42:00,
2013-02-07 23:52:00,29.0,-99.9,30.32,North,-999,-999.0,-999.0,-999,-99.99,,,-99.99,,2013-02-08 04:52:00,